TimeCDT,TemperatureF,Dew PointF,Humidity,Sea Level PressureIn,VisibilityMPH,Wind Direction,Wind SpeedMPH,Gust SpeedMPH,PrecipitationIn,Events,Conditions,WindDirDegrees,DateUTC
12:35 AM,37.4,32.0,81,30.13,10.0,Calm,Calm,-,N/A,Rain,Light Rain,0,2012-10-13 05:35:00
12:55 AM,37.4,33.8,87,30.12,7.0,Calm,Calm,-,N/A,Rain-Thunderstorm,Rain,0,2012-10-13 05:55:00
1:15 AM,37.4,33.8,87,30.13,7.0,West,3.5,-,0.01,Rain-Thunderstorm,Heavy Thunderstorms and Rain,260,2012-10-13 06:15:00
1:55 AM,37.4,37.4,100,30.12,0.5,Calm,Calm,-,0.20,Snow,Light Snow,0,2012-10-13 06:55:00
2:15 AM,37.4,37.4,100,30.11,3.0,Calm,Calm,-,0.11,Rain-Thunderstorm,Light Thunderstorms and Rain,0,2012-10-13 07:15:00
2:35 AM,39.2,39.2,100,30.08,3.0,SE,3.5,-,0.13,Rain,Rain,130,2012-10-13 07:35:00
2:55 AM,39.2,39.2,100,30.07,5.0,SSE,3.5,-,0.14,Rain,Rain,150,2012-10-13 07:55:00
3:35 AM,39.2,39.2,100,30.04,5.0,SE,5.8,-,0.01,,Overcast,130,2012-10-13 08:35:00
3:55 AM,39.2,39.2,100,30.02,2.0,SE,4.6,-,0.01,Rain,Rain,130,2012-10-13 08:55:00
4:15 AM,39.2,39.2,100,30.01,2.5,Calm,Calm,-,N/A,Rain,Light Rain,0,2012-10-13 09:15:00
4:35 AM,39.2,39.2,100,30.01,1.8,ESE,4.6,-,N/A,Rain,Light Rain,120,2012-10-13 09:35:00
5:15 AM,39.2,39.2,100,30.00,1.2,ESE,3.5,-,N/A,Rain,Light Rain,110,2012-10-13 10:15:00
5:35 AM,41.0,41.0,100,29.99,1.2,ESE,3.5,-,N/A,,Drizzle,110,2012-10-13 10:35:00
5:55 AM,41.0,41.0,100,29.97,1.0,ESE,5.8,-,N/A,Rain,Rain,110,2012-10-13 10:55:00
6:15 AM,41.0,41.0,100,29.95,1.2,ESE,4.6,-,N/A,,Light Drizzle,120,2012-10-13 11:15:00
6:35 AM,41.0,41.0,100,29.94,1.8,Calm,Calm,-,N/A,Rain,Rain,0,2012-10-13 11:35:00
6:55 AM,41.0,41.0,100,29.93,1.2,ESE,4.6,-,0.02,Rain,Rain,120,2012-10-13 11:55:00
7:15 AM,41.0,41.0,100,29.91,1.8,ESE,5.8,-,N/A,Rain-Thunderstorm,Rain,110,2012-10-13 12:15:00
7:35 AM,41.0,41.0,100,29.90,1.5,East,3.5,-,N/A,Thunderstorm,Unknown,100,2012-10-13 12:35:00
7:55 AM,41.0,41.0,100,29.90,1.5,Calm,Calm,-,0.01,Rain-Thunderstorm,Thunderstorms and Rain,0,2012-10-13 12:55:00
8:15 AM,41.0,41.0,100,29.88,1.5,East,4.6,-,0.02,Rain-Thunderstorm,Heavy Thunderstorms and Rain,80,2012-10-13 13:15:00
8:35 AM,41.0,41.0,100,29.88,1.8,East,3.5,-,0.03,Rain-Thunderstorm,Rain,80,2012-10-13 13:35:00
8:55 AM,42.8,42.8,100,29.88,2.0,Calm,Calm,-,0.03,Rain,Light Rain,0,2012-10-13 13:55:00
9:15 AM,42.8,42.8,100,29.89,2.0,Calm,Calm,-,N/A,,Light Drizzle,0,2012-10-13 14:15:00
9:35 AM,42.8,42.8,100,29.90,2.0,SSE,3.5,-,0.01,Rain-Thunderstorm,Rain,150,2012-10-13 14:35:00
9:55 AM,42.8,42.8,100,29.89,2.0,Calm,Calm,-,0.03,Rain,Light Rain,0,2012-10-13 14:55:00
10:35 AM,44.6,44.6,100,29.85,0.8,East,3.5,-,0.13,Rain,Heavy Rain,80,2012-10-13 15:35:00
10:55 AM,44.6,44.6,100,29.83,4.0,ENE,4.6,-,0.14,Rain,Light Rain,70,2012-10-13 15:55:00
11:15 AM,44.6,44.6,100,29.81,3.0,ENE,3.5,-,0.01,Rain,Rain,70,2012-10-13 16:15:00
11:35 AM,44.6,44.6,100,29.82,5.0,Calm,Calm,-,0.02,Rain,Light Rain,0,2012-10-13 16:35:00
11:55 AM,46.4,46.4,100,29.81,5.0,Calm,Calm,-,0.02,,Light Drizzle,0,2012-10-13 16:55:00
12:15 PM,46.4,46.4,100,29.81,3.0,Calm,Calm,-,N/A,,Overcast,0,2012-10-13 17:15:00
12:35 PM,46.4,46.4,100,29.80,5.0,Calm,Calm,-,N/A,,Overcast,0,2012-10-13 17:35:00
12:55 PM,46.4,46.4,100,29.79,3.0,Calm,Calm,-,0.01,Rain,Rain,0,2012-10-13 17:55:00
1:15 PM,46.4,46.4,100,29.77,1.8,Calm,Calm,-,0.05,Rain,Heavy Rain,0,2012-10-13 18:15:00
1:55 PM,50.0,50.0,100,29.74,7.0,Calm,Calm,-,0.07,,Overcast,0,2012-10-13 18:55:00
2:15 PM,50.0,50.0,100,29.73,7.0,Calm,Calm,-,N/A,,Overcast,0,2012-10-13 19:15:00
2:35 PM,50.0,50.0,100,29.73,2.0,Calm,Calm,-,N/A,,Overcast,0,2012-10-13 19:35:00
3:15 PM,50.0,50.0,100,29.71,0.5,Calm,Calm,-,0.01,Fog,Fog,0,2012-10-13 20:15:00
3:35 PM,51.8,51.8,100,29.71,0.5,Calm,Calm,-,0.01,Fog,Fog,0,2012-10-13 20:35:00
3:55 PM,51.8,51.8,100,29.71,0.5,Calm,Calm,-,0.01,Fog,Fog,0,2012-10-13 20:55:00
4:15 PM,51.8,51.8,100,29.71,0.5,Calm,Calm,-,N/A,Fog,Fog,0,2012-10-13 21:15:00
4:55 PM,51.8,51.8,100,29.70,1.2,Calm,Calm,-,N/A,,Overcast,0,2012-10-13 21:55:00
5:15 PM,51.8,51.8,100,29.70,1.0,Calm,Calm,-,N/A,Rain,Rain,0,2012-10-13 22:15:00
5:35 PM,51.8,51.8,100,29.71,1.2,Calm,Calm,-,0.01,,Light Drizzle,0,2012-10-13 22:35:00
5:55 PM,50.0,50.0,100,29.71,1.8,Calm,Calm,-,0.01,,Drizzle,0,2012-10-13 22:55:00
6:15 PM,51.8,51.8,100,29.71,1.2,Calm,Calm,-,N/A,,Drizzle,0,2012-10-13 23:15:00
6:35 PM,50.0,50.0,100,29.71,1.2,Calm,Calm,-,N/A,,Overcast,0,2012-10-13 23:35:00
7:55 PM,51.8,51.8,100,29.71,1.0,Calm,Calm,-,N/A,,Overcast,0,2012-10-14 00:55:00
8:15 PM,51.8,51.8,100,29.71,0.8,Calm,Calm,-,N/A,,Overcast,0,2012-10-14 01:15:00
8:35 PM,51.8,51.8,100,29.71,1.5,Calm,Calm,-,N/A,,Overcast,0,2012-10-14 01:35:00
9:15 PM,51.8,51.8,100,29.72,1.2,Calm,Calm,-,N/A,,Overcast,0,2012-10-14 02:15:00
9:35 PM,51.8,51.8,100,29.71,0.5,North,8.1,-,N/A,Fog,Fog,360,2012-10-14 02:35:00
9:55 PM,51.8,51.8,100,29.71,0.2,NNE,5.8,-,N/A,Fog,Fog,20,2012-10-14 02:55:00
10:15 PM,51.8,51.8,100,29.71,0.2,NE,5.8,-,N/A,Fog,Fog,40,2012-10-14 03:15:00
10:55 PM,51.8,51.8,100,29.72,1.0,Calm,Calm,-,N/A,,Overcast,0,2012-10-14 03:55:00
11:15 PM,51.8,51.8,100,29.72,0.8,Calm,Calm,-,N/A,,Overcast,0,2012-10-14 04:15:00
11:35 PM,51.8,51.8,100,29.70,0.2,NE,3.5,-,N/A,Fog,Fog,40,2012-10-14 04:35:00